Home > Weather > Yokohama > Past weeks

Flag for Japan Weather for the Past 2 Weeks in Yokohama, Japan

Now
45 °F

Passing clouds.


Feels Like: 40 °F
Forecast: 39 / 54 °F
Wind: 8 mph from East

Location: Tokyo International Airport

Current Time: Feb 12, 2016 at 2:18:38 AM

Latest Report: Feb 12, 2016 at 2:00 AM


Visibility: N/A

Pressure: 30.51 "Hg

Humidity: 61%

Dew point: 32 °F

Location of YokohamaLocation

Historic Weather in Yokohama — Graph

°F

Yokohama Temperature Yesterday

Maximum temperature yesterday: 48 °F (at 2:00 PM)
Minimum temperature yesterday: 39 °F (at 2:30 AM)
Average temperature yesterday: 44 °F

High & Low Weather Summary for the Past Weeks

 TemperatureHumidityPressure
High55 °F (Feb 9, 12:00 PM)100% (Jan 30, 2:00 AM)30.51 "Hg (Jan 30, 2:00 AM)
Low36 °F (Jan 28, 7:00 AM)22% (Feb 10, 12:30 PM)29.62 "Hg (Feb 9, 1:30 PM)
Average44 °F60%30.08 "Hg
* Reported Jan 28 1:00 AM — Feb 12 1:00 AM, Yokohama, Weather by CustomWeather, © 2016

Note: Actual official high and low records may vary slightly from our data, if they occured in-between our weather recording intervals... More about our weather records

Advertising

Yokohama Weather History for the Previous 24 Hours

 ConditionsComfort  
Time TempWeatherWind HumidityBarometerVisibility
1:00 AM
Fri, Feb 12
45 °FPassing clouds.10 mph66%30.51 "HgN/A
12:30 AM45 °FPassing clouds.10 mph61%30.51 "HgN/A
12:00 AM45 °FPassing clouds.10 mph61%30.51 "HgN/A
11:30 PM
Thu, Feb 11
45 °FClear.10 mph61%30.51 "Hg10 mi
11:00 PM45 °FClear.10 mph61%30.51 "Hg10 mi
10:30 PM45 °FClear.10 mph66%30.51 "Hg10 mi
10:00 PM45 °FClear.12 mph61%30.51 "Hg10 mi
9:30 PM45 °FClear.10 mph61%30.51 "Hg10 mi
9:00 PM45 °FClear.12 mph57%30.51 "Hg10 mi
8:30 PM45 °FClear.10 mph61%30.48 "Hg10 mi
8:00 PM45 °FClear.12 mph57%30.48 "Hg10 mi
7:30 PM45 °FClear.12 mph61%30.48 "Hg10 mi
7:00 PM46 °FClear.15 mph57%30.48 "Hg10 mi
6:30 PM46 °FClear.15 mph53%30.45 "Hg10 mi
6:00 PM48 °FClear.16 mph54%30.45 "Hg10 mi
5:30 PM46 °FPassing clouds.5 mph37%30.45 "HgN/A
5:00 PM46 °FPassing clouds.6 mph34%30.42 "HgN/A
4:30 PM48 °FPassing clouds.5 mph32%30.42 "HgN/A
4:00 PM48 °FSunny.7 mph32%30.42 "Hg10 mi
3:30 PM48 °FPassing clouds.6 mph34%30.42 "HgN/A
3:00 PM48 °FPassing clouds.6 mph34%30.39 "HgN/A
2:30 PM46 °FPassing clouds.6 mph34%30.39 "HgN/A
2:00 PM48 °FPassing clouds.6 mph34%30.39 "HgN/A
1:30 PM46 °FPassing clouds.7 mph40%30.39 "HgN/A
1:00 PM46 °FPassing clouds.7 mph40%30.39 "HgN/A
12:30 PM45 °FPassing clouds.9 mph42%30.42 "HgN/A
11:30 AM45 °FPassing clouds.8 mph42%30.42 "HgN/A
11:00 AM45 °FPassing clouds.9 mph42%30.42 "HgN/A
10:30 AM43 °FPassing clouds.13 mph42%30.42 "HgN/A
10:00 AM43 °FPassing clouds.16 mph42%30.42 "HgN/A
9:30 AM43 °FPassing clouds.16 mph42%30.42 "HgN/A
9:00 AM43 °FPassing clouds.16 mph46%30.39 "HgN/A
8:30 AM41 °FPassing clouds.21 mph45%30.39 "HgN/A
8:00 AM41 °FPassing clouds.17 mph53%30.36 "HgN/A
7:30 AM41 °FPassing clouds.15 mph53%30.36 "HgN/A
7:00 AM39 °FPassing clouds.16 mph56%30.36 "HgN/A
6:30 AM41 °FPassing clouds.16 mph49%30.33 "HgN/A
6:00 AM41 °FPassing clouds.18 mph49%30.33 "HgN/A
5:30 AM41 °FPassing clouds.21 mph42%30.30 "HgN/A
5:00 AM41 °FClear.18 mph42%30.30 "Hg10 mi
4:30 AM41 °FClear.18 mph42%30.30 "Hg10 mi
4:00 AM41 °FClear.16 mph36%30.30 "Hg10 mi
3:30 AM41 °FPassing clouds.16 mph36%30.27 "HgN/A
3:00 AM41 °FPassing clouds.16 mph33%30.27 "HgN/A
2:30 AM39 °FPassing clouds.15 mph39%30.27 "HgN/A
2:00 AM41 °FPassing clouds.14 mph36%30.27 "HgN/A
Weather by CustomWeather, © 2016

See weather overviewHow to use our weather pages